Regional Weather Roundup
Issued by NWS

Home | Current Version | Previous Version | Text Only | Print | Product List | Glossary Off
Versions: 1 2 3 4 5 6 7 8 9 10 11 12 13 14 15 16 17 18 19 20 21 22 23 24 25 26 27 28 29 30 31 32 33 34 35 36 37 38 39 40 41 42 43 44 45 46 47 48 49 50

174
ASUS43 KLSX 182010
RWRMO

WEATHER SUMMARY FOR MISSOURI
NATIONAL WEATHER SERVICE SPRINGFIELD MO
200 PM CST WED JAN 18 2017

NOTE: "FAIR" INDICATES FEW OR NO CLOUDS BELOW 12,000 FEET WITH NO
       SIGNIFICANT WEATHER AND/OR OBSTRUCTIONS TO VISIBILITY.
       CURRENT SKY AND/OR WEATHER CONDITIONS ARE NOT AVAILABLE FOR
       CHILLICOTHE AND FARMINGTON.

MOZ001>031-035>038-043-044-053-054-182100-
...NORTHERN AND WESTERN MISSOURI...

CITY           SKY/WX    TMP DP  RH WIND       PRES   REMARKS
KANSAS CTY INT MOSUNNY   45  37  73 S7        30.05F
KANSAS C DTWN  MOSUNNY   45  38  76 VRB6      30.06F
LEE`S SUMMIT   MOSUNNY   43  38  82 CALM      30.06F
ST JOSEPH      SUNNY     47  41  80 S12       30.04F
CHILLICOTHE      N/A     40  37  89 S7        30.09F
KIRKSVILLE     CLOUDY    40  36  86 SW9       30.08F

$$
MOZ066>068-077>081-088>096-101>105-182100-
...SOUTHWEST MISSOURI...

CITY           SKY/WX    TMP DP  RH WIND       PRES   REMARKS
SPRINGFIELD    CLOUDY    50  35  56 SE8       30.06F
JOPLIN         CLOUDY    52  40  63 SE6       30.06F
BRANSON        CLOUDY    41  39  93 E9        30.09F

$$
MOZ032>034-039>042-045>050-055>058-069>072-182100-
...CENTRAL MISSOURI...

CITY           SKY/WX    TMP DP  RH WIND       PRES   REMARKS
COLUMBIA       MOSUNNY   46  36  68 S7        30.09F
JEFFERSON CITY PTSUNNY   47  36  65 E7        30.10F
ROLLA          MOSUNNY   49  35  58 S7        30.09F
SEDALIA        SUNNY     48  39  71 S7        30.09F
WHITEMAN AFB   MOSUNNY   47  42  81 S6        30.06F
WARRENSBURG    SUNNY     46  37  71 S6        30.08F
OSAGE BEACH    PTSUNNY   48  36  63 VRB3      30.11F

$$
MOZ051-052-059>065-182100-
...EAST CENTRAL MISSOURI...

CITY           SKY/WX    TMP DP  RH WIND       PRES   REMARKS
ST LOUIS INTL  CLOUDY    48  32  53 S8        30.13F
SPIRIT OF STL  CLOUDY    48  34  58 VRB3      30.12F
ST CHARLES     PTSUNNY   46  35  65 S5        30.12F

$$
MOZ072>076-082>087-097>100-106>115-182100-
...SOUTH CENTRAL AND SOUTHEAST MISSOURI...

CITY           SKY/WX    TMP DP  RH WIND       PRES   REMARKS
CAPE GIRARDEAU CLOUDY    43  36  76 CALM      30.15F
FARMINGTON     CLOUDY    43  35  73 CALM      30.13F
POPLAR BLUFF   CLOUDY    43  40  89 SE5       30.17F
WEST PLAINS    CLOUDY    42  38  85 SE6       30.12F

$$




USA.gov is the U.S. government's official web portal to all federal, state and local government web resources and services.